This is the latest recevied weather packets stored in our database for station/object OK1ALX-6. If no packets are shown the sender has not sent any weather packets the latest 10 day(s).
| Time | Temp. | Humidity | Pressure | Rain* | Wind** | Luminosity | Snow |
|---|---|---|---|---|---|---|---|
| 1777717203 | 20.56° C | 35% | 1028.1 hPa | 0 mm | - | 691 W/m² | - |
| 1777716603 | 20.56° C | 36% | 1028.3 hPa | 0 mm | - | 704 W/m² | - |
| 1777716004 | 20.56° C | 33% | 1028.3 hPa | 0 mm | - | 713 W/m² | - |
| 1777714803 | 21.11° C | 34% | 1028.4 hPa | 0 mm | - | 672 W/m² | - |
| 1777714203 | 19.44° C | 34% | 1028.9 hPa | 0 mm | - | 722 W/m² | - |
| 1777713603 | 20° C | 32% | 1028.8 hPa | 0 mm | - | 670 W/m² | - |
| 1777713003 | 19.44° C | 35% | 1029 hPa | 0 mm | - | 617 W/m² | - |
| 1777712403 | 20.56° C | 34% | 1029 hPa | 0 mm | - | 681 W/m² | - |
| 1777711803 | 19.44° C | 38% | 1029.1 hPa | 0 mm | - | 668 W/m² | - |
| 1777711203 | 19.44° C | 38% | 1029.6 hPa | 0 mm | - | 627 W/m² | - |
| 1777710603 | 19.44° C | 39% | 1029.2 hPa | 0 mm | - | 635 W/m² | - |
| 1777710003 | 18.33° C | 42% | 1029.6 hPa | 0 mm | - | 623 W/m² | - |
| 1777709403 | 17.78° C | 44% | 1029.9 hPa | 0 mm | - | 610 W/m² | - |
| 1777708803 | 17.22° C | 48% | 1029.9 hPa | 0 mm | - | 586 W/m² | - |
| 1777708203 | 17.22° C | 46% | 1030.3 hPa | 0 mm | - | 557 W/m² | - |
| 1777707603 | 16.67° C | 47% | 1030.4 hPa | 0 mm | - | 534 W/m² | - |
| 1777707003 | 16.67° C | 53% | 1030.4 hPa | 0 mm | - | 502 W/m² | - |
| 1777706403 | 16.11° C | 53% | 1030.4 hPa | 0 mm | - | 404 W/m² | - |
| 1777705803 | 15.56° C | 55% | 1030.4 hPa | 0 mm | - | 419 W/m² | - |
| 1777705203 | 15.56° C | 55% | 1030.6 hPa | 0 mm | - | 369 W/m² | - |
| 1777704604 | 14.44° C | 57% | 1030.9 hPa | 0 mm | - | 328 W/m² | - |
| 1777704003 | 14.44° C | 58% | 1030.7 hPa | 0 mm | - | 280 W/m² | - |
| 1777703403 | 13.89° C | 62% | 1030.8 hPa | 0 mm | - | 251 W/m² | - |
| 1777702803 | 13.89° C | 63% | 1031 hPa | 0 mm | - | 214 W/m² | - |
| 1777702203 | 13.89° C | 64% | 1031 hPa | 0 mm | - | 191 W/m² | - |
* Rain latest hour (hover to see other rain measurements)
** Current wind speed in m/s (hover to see current wind gust speed)